Погода Молалы

Поиск расширенной информации на нашем сайте:

Полезная информация:

Новости сайта



02.01.2020
Опубликован Долгосрочный прогноз погоды по городам России и ближнего зарубежья на январь 2020 года.
Карты: Прогноз на январь и февраль 2020 года, Сравнение прогнозируемой аномалии приземной температуры воздуха на январь 2020 года по разным моделям.




Погода Молалы - сегодня

Время (UTC), дата Ветер
(°,м/с) 
Видим.   Явления Облачность Т
(°С)
Тd
(°С)
f(%) Тe
(°С)
Pmin
(гПа)
dP
(гПа)
Po
(мм)
O2
(г/м3)
Тmin Tmax R s Состояние
почвы
12 22.10.21 200 (Ю) 20000 м    10/8 600 м кучево-дожд., средняя 
[Cb calv|Ac und]
+3.8 +1.3 84 +3  1034.8  1.3  722  287           
15 22.10.21 210 (ЮЗ) н/о    10/0 верхняя 
[Cs]
+3.8 -0.4 74 +5  1037.1  2.1  723  287    +5.5       
18 22.10.21 тихо ()   н/о    4/0 верхняя 
[Ci sp]
+1.4 +0.3 92 +1  1038.2  0.5  724  290    +5.5       
21 22.10.21 тихо ()   н/о    3/0 верхняя 
[Ci fib]
-1.6 -2.2 96 -2  1039.8  0.6  724  294           
00 23.10.21 тихо () {05}  н/о    ясно 
-2.2 -3.7 89 -2  1040  0.1  724  295           
03 23.10.21 тихо ()   20000 м    ясно 
-0.3 -2.6 84 -0  1040.2  0.7  725  293  -2.4        замёрзшая 
06 23.10.21 230 (ЮЗ) 20000 м    3/0 средняя, верхняя 
[Ac trans|Ci sp]
+8.7 -3.4 42 +10  1036.8  -0.9  724  283  -2.4         
09 23.10.21 270 (З) 20000 м    9/0 средняя 
[Ac trans]
+9.4 -3 42 +10  1034.8  -1.8  723  282           
12 23.10.21 тихо ()   20000 м    3/0 средняя 
[Ac lent]
+7.4 -1.1 55 +7  1035.3  723  284           
15 23.10.21 тихо ()   н/о    ясно 
+2.2 -0.5 82 +2  1037.4  0.8  723  289    +10.2       
18 23.10.21 080 (В) н/о    3/0 средняя 
[Ac lent]
-0.5 -1.7 92 1037.5  -0.6  723  292    +10.2       
21 23.10.21 тихо ()   н/о    ясно 
-1.8 -2.4 96 -2  1037  -0.9  722  293           
00 24.10.21 тихо () {05}  н/о    ясно 
-3.5 -4 96 -4  1036  -1.4  721  295           
03 24.10.21 тихо ()   20000 м    ясно 
-0.5 -2 90 -1  1034.8  -0.3  721  291           
06 24.10.21 тихо ()   20000 м    ясно 
+11.3 -1.3 42 +11  1029.4  -2  719  278  -3.8         
09 24.10.21 350 (С) 20000 м    ясно 
+13.7 -3.5 30 +13  1026  -2.7  717  276           
12 24.10.21 350 (С) 20000 м    ясно 
+10.8 -2.4 40 +10  1025.4  -1.3  716  278           
15 24.10.21 тихо ()   н/о    ясно 
+4.4 -0.3 71 +4  1025.7  -1.2  716  284    +14.6       
18 24.10.21 тихо ()   н/о    ясно 
-1.4 -2 96 -1  1025  -2.1  714  289    +14.6       
21 24.10.21 тихо ()   н/о    ясно 
-2.2 -3.1 94 -2  1022.9  -2.2  712  290           
00 25.10.21 тихо () {08}  н/о    ясно 
-3.4 -3.8 97 -3  1021.4  -1.7  726  297           
03 25.10.21 тихо ()   20000 м    ясно 
+1.6 -3.7 68 +2  1019.5  -0.4  711  285  -3.5        влажная 
06 25.10.21 350 (С) 20000 м    ясно 
+15.3 +1.2 38 +17  1015.3  -0.7  710  271  -3.5         
09 25.10.21 240 (ЮЗ) 20000 м    ясно 
+15.5 -1.2 32 +16  1014.7  -0.5  710  271           
12 25.10.21 280 (З) 20000 м    ясно 
+11.5 -0.2 44 +13  1016.7  0.9  711  275           
Время (UTC), дата Ветер
(°,м/с) 
Видим.   Явления Облачность Т
(°С)
Тd
(°С)
f(%) Тe
(°С)
Pmin
(гПа)
dP
(гПа)
Po
(мм)
O2
(г/м3)
Тmin Tmax R s Состояние
почвы

Для получения пояснительной информации подведите курсор к названию столбца.

ПОГОДА Молалы - архив

Всё, что Вы хотите узнать о погоде Молалы - удобно и подробно!

Выберите нужную дату (начиная с 1 января 2019* года) и нажмите кнопку "Найти".
Будут отображены архивные сводки погоды по пункту Молалы, начиная с указанной даты.


Отображать данные в формате CSV (для использования в таблицах Excel)


Внимание! Наш архив погоды предназначен исключительно для личного некоммерческого использования в познавательных целях. Если Вам необходимы официальные справки о состоянии погоды (для производственных, юридических, коммерческих и т.п. целей), обращайтесь в органы Росгидромета.

*Примечание: данная дата относится к архиву по метеостанциям СССР (Россия, СНГ, Балтия).
Архив по метеостанциям Зарубежной Европы и Азии (кроме Китая) хранится 10 дней, по другим регионам земного шара (Китай, Африка, Америка, Австралия, Океания) - 1 день.

Молалы - район местоположения метеостанции


Название, широта, долгота, высота метеостанции:
Молалы 45.4°ш. 78.3°д. 564 м над ур. моря [Казахстан]

Дополнительная информация

В oтличие oт бoльшинства пoгoдных сайтoв мы публикуем пoдрoбную метеoинфoрмацию в детальнoм прoфессиoнальнoм фoрмате.

Характеристики температуры и влажнoсти вoздуха измеряются на высoте 2 м в тени вдали oт зданий и деревьев.
Скoрoсть ветра измеряется на высoте 10 м (на урoвне рoста челoвека скoрoсть ветра ниже в 1.5-2 раза). Если метеoстанция нахoдится в гoрoде или в лесу, тo скoрoсть ветра занижена на 2-4 м/с пo сравнению с oткрытым местoм. Скoрoсть ветра над акватoриями крупных рек и oзёр, а также на вершинах хoлмoв на 2-5 м/с выше, чем в oбычных услoвиях.
Атмoсфернoе давление в разных тoчках местнoсти мoжет значительнo oтличаться oт давления на метеoстанции, в зависимoсти oт услoвий рельефа (при пoдъёме на 10 м давление пoнижается примернo на 1 мм рт.ст.).